Regional Weather Roundup
Issued by NWS

Home | Current Version | Previous Version | Text Only | Print | Product List | Glossary Off
Versions: 1 2 3 4 5 6 7 8 9 10 11 12 13 14 15 16 17 18 19 20 21 22 23 24 25 26 27

000
ASUS45 KSLC 201510
RWRUT

UTAH REGIONAL WEATHER ROUNDUP
NATIONAL WEATHER SERVICE SALT LAKE CITY UT
900 AM MDT WED SEP 20 2017

UTZ001>011-023>025-201600-

NORTHERN UTAH

CITY           SKY/WX    TMP DP  RH WIND       PRES   REMARKS
BRIGHAM CITY   CLOUDY    45  37  73 CALM      29.93F
DUGWAY         MOSUNNY   47  27  45 VRB2      29.92F
HILL AFB       SUNNY     47  32  56 E13       29.93S
LOGAN          CLOUDY    41  38  89 NW3       29.93R
OGDEN          SUNNY     49  34  56 S12       29.92S
SALT LAKE CITY MOSUNNY   54  39  57 SE15      29.92F
TOOELE VALLEY  SUNNY     52  36  54 SE9       29.93S
WENDOVER       SUNNY     49  30  48 E3        29.91F
HEBER CITY     SUNNY     36  32  87 CALM      30.00F
WEST JORDAN    SUNNY     53  43  68 S10G16    29.94F

$$

UTZ011>015-024>027-201600-

CENTRAL/NORTHEAST UTAH

CITY           SKY/WX    TMP DP  RH WIND       PRES   REMARKS
PROVO AIRPORT  SUNNY     47  38  71 E5        29.98S
MOAB/CANYONLAN SUNNY     61  36  39 CALM      29.92R
DELTA          SUNNY     50  36  57 NE3       29.95S
PRICE          SUNNY     53  32  44 CALM      29.98R
ROOSEVELT      SUNNY     50  37  62 SW5       30.03S
VERNAL         MOSUNNY   51  37  58 S5        30.01R

$$

UTZ013>016-019>022-027-201600-

SOUTHERN UTAH

CITY           SKY/WX    TMP DP  RH WIND       PRES   REMARKS
BRYCE CANYON   SUNNY     52  34  50 CALM      30.10R
CEDAR CITY     SUNNY     55  41  59 CALM      29.98R
MILFORD        SUNNY     51  38  60 S6        29.96R
ST GEORGE      SUNNY     68  41  37 W3        29.88R
HANKSVILLE     SUNNY     59  34  38 NW5       29.95S
BLANDING         N/A     60  32  34 S5        30.12S

$$

REGIONAL REPORTS     COLORADO/ARIZONA

CITY           SKY/WX    TMP DP  RH WIND       PRES   REMARKS
CRAIG, CO      CLOUDY    45  35  68 E9        30.04S
GRAND JUNCTION SUNNY     59  38  45 SE7       29.96R
RIFLE, CO      SUNNY     50  37  61 CALM      30.01S
MONTROSE, CO   SUNNY     63  35  35 E5        30.03S
CORTEZ, CO     SUNNY     56  33  42 CALM      30.08R
PAGE, AZ       SUNNY     68  37  32 VRB3      29.94R
GRAND CANYON   SUNNY     56  34  43 CALM      30.12R
KINGMAN, AZ    SUNNY     70  42  36 CALM      29.92R
FLAGSTAFF, AZ  SUNNY     53  29  39 CALM      30.16R

$$

REGIONAL REPORTS    NEVADA/IDAHO/WYOMING

CITY           SKY/WX    TMP DP  RH WIND       PRES   REMARKS
LAS VEGAS, NV  SUNNY     73  42  32 S3        29.81R
ELY, NY        SUNNY     43  27  53 S9        29.98F
ELKO, NV       CLOUDY    41  21  44 CALM      29.92S
POCATELLO, ID  MOSUNNY   51  33  50 S15       29.84F
BURLEY, ID     PTSUNNY   51  29  42 S17G25    29.81F
FORT BRIDGER,    N/A     45  29  54 S6        30.02F
EVANSTON, WY   SUNNY     38  30  73 SW8       30.00S WCI  32
ROCK SPRINGS,  SUNNY     41  29  62 S7        30.01F
KEMMERER, WY     N/A     36  30  80 SE3       30.00S

$$




USA.gov is the U.S. government's official web portal to all federal, state and local government web resources and services.